Weather Roundup
Issued by NWS Springfield, MO

Home | Current Version | Previous Version | Text Only | Print | Product List | Glossary On
Versions: 1 2 3 4 5 6 7 8 9 10 11 12 13 14 15 16 17 18 19 20 21 22 23 24 25 26 27 28 29 30 31 32 33 34 35 36 37 38 39 40 41 42 43 44 45 46 47 48 49 50
000
NZUS99 KSGF 271059
HRRSGF

HOURLY WEATHER
NATIONAL WEATHER SERVICE SPRINGFIELD MO
600 AM CDT FRI MAR 27 2015

......SGF CWA......

CITY           SKY/WX    TMP DP  RH WIND       PRES   REMARKS
SPRINGFIELD    CLOUDY    39  36  89 NW7       30.08R WCI  34
JOPLIN         MOCLDY    37  35  92 VRB3      30.12R
WEST PLAINS    CLOUDY    38  34  85 MISG      30.06S
ROLLA          FLURRIES  35  29  78 MISG      30.08R
OSAGE BEACH    CLOUDY    37  28  70 N8        30.11R WCI  31
BRANSON        CLOUDY    37  36  93 N6        30.09R WCI  33

......SURROUNDING SGF CWA......

CITY           SKY/WX    TMP DP  RH WIND       PRES   REMARKS
CHANUTE        CLOUDY    39  36  89 N15       30.16R WCI  31
PARSONS        CLOUDY    41  37  86 N9        30.16R
COFFEYVILLE    MOCLDY    39  36  89 N8        30.15R WCI  33
EMPORIA        CLOUDY    35  32  88 N13       30.19R WCI  26
SILOAM SPRINGS PTCLDY    39  30  70 NE9       30.08R WCI  33
HARRISON AR    CLOUDY    38  35  89 N5        30.07R WCI  34
NEAR YELLVILLE CLOUDY    39  34  81 N6        30.08R WCI  35

......KANSAS AND MISSOURI......

CITY           SKY/WX    TMP DP  RH WIND       PRES   REMARKS
KANSAS CTY INT CLOUDY    32  29  88 N10       30.19R WCI  24
DOWNTOWN KC    MOCLDY    36  28  73 N8        30.19R WCI  30
COLUMBIA       LGT SNOW  33  31  92 NE12      30.14R FOG     WCI  24
SEDALIA        CLOUDY    35  31  85 N12       30.16R WCI  27
ST JOSEPH      CLOUDY    30  25  81 N9        30.23R WCI  22
ST LOUIS       FLURRIES  36  25  64 N8        30.12R WCI  30
SPIRIT OF STL  FLURRIES  34  26  72 N9        30.12S WCI  27
KIRKSVILLE     CLOUDY    32  23  69 N10       30.16R WCI  24
WICHITA        CLOUDY    39  34  82 N16       30.20R WCI  30
TOPEKA         CLEAR     33  30  88 N8        30.23R WCI  26
OLATHE         PTCLDY    35  29  78 N12       30.17R WCI  27

......TENNESSEE......

CITY           SKY/WX    TMP DP  RH WIND       PRES   REMARKS
MEMPHIS        MOCLDY    38  34  85 CALM      30.04S
NASHVILLE      CLEAR     35  33  92 NW7       29.98R WCI  29

......ARKANSAS.......

CITY           SKY/WX    TMP DP  RH WIND       PRES   REMARKS
FAYETTEVILLE   CLOUDY    39  36  89 NE3       30.07R
FT SMITH       MOCLDY    43  37  79 E3        30.05R
LITTLE ROCK    MOCLDY    43  34  70 N5        30.08R

......OKLAHOMA.......

CITY           SKY/WX    TMP DP  RH WIND       PRES   REMARKS
TULSA          CLOUDY    44  37  76 N10       30.10R
PONCA CITY     MOCLDY    41  36  82 N13       30.17R
MCALESTER      CLOUDY    46  35  65 SW7       30.06R
OKLAHOMA CITY  CLOUDY    53  35  50 N15       30.10R

......IOWA............

CITY           SKY/WX    TMP DP  RH WIND       PRES   REMARKS
DES MOINES     PTCLDY    28  17  63 N9        30.20S WCI  19
QUAD CITIES    CLOUDY    30  17  58 N8        30.14R WCI  22

......ILLINOIS........

CITY           SKY/WX    TMP DP  RH WIND       PRES   REMARKS
QUINCY         PTCLDY    27  20  75 N7        30.13R WCI  19
CHICAGO        LGT SNOW  24  20  84 NE16G23   30.10R FOG     WCI  11



USA.gov is the U.S. government's official web portal to all federal, state and local government web resources and services.